map of TID home
TID - Airport
Location
City:  Tiaret, Tiaret, Algeria
Name:Abdelhafid Boussouf Bou Chekif Airport
ICAO:DAOB
IATA:TID

Details
Type:Airport (Aerodrome, Airfield)
Use:Public/Civil, International (customs port of entry)
Latitude:3520'29"N (35.341389)
Longitude:128'01"E (1.466944)
Elevation:3245 ft (989 m)
Variation:0.74E (WMM2015 magnetic declination)
0.10 annual change
Runways:1
Longest:9843 × 148 ft (3000 × 45 m)

Time
Time Zone:UTC+1
Local Time:

Weather
METAR:DAOB 190900Z 23007KT CAVOK 09/05 Q1027
TAF:DAOB 190500Z 1906/2006 VRB02KT 8000 NSC PROB40 1906/1908 3000 BR BKN015 PROB30
TEMPO 1906/1907 0800 FG BKN012
TEMPO 1913/1918 30010KT

Related Locations
Nearby:
Farthest:NZOP: 12142 mi / 19541 km
Opotiki, BOP, NZ

Find:

   beyond  
but within

Other Information
Maps:
NOTAMs:
Links:
Sources:

  
  • flag of Algeria
  

Sectional Chart

Flight Planning
at skyvector.com

Satellite Image

Google Maps Satellite view

 

Copyright © 2004-2018 Karl L. Swartz. All rights reserved.
The Great Circle Mapper name and logo are trademarks of the Great Circle Mapper.
All other trademarks mentioned herein belong to their respective owners.
Please see credits for attibutions and further copyright information.

  Follow gcmap on Facebook Follow gcmap on Twitter Follow gcmap on Google+ GCmap on LinkedIn

hCard Microformat

Geo Microformat